« Back
NWS Peachtree City, Ga » Text Product » GA Regional Weather Roundup


Printer-friendly Version
Current Version              Previous Versions:   1  2  3  4  5  6  7  8  9  

Regional Weather Roundup

918
ASUS42 KFFC 020703
RWRGA
WEATHER ROUNDUP FOR GEORGIA
NATIONAL WEATHER SERVICE PEACHTREE CITY GA
300 AM EDT THU JUL 02 2015

NOTE: "FAIR" INDICATES FEW OR NO CLOUDS BELOW 12,000 FEET WITH NO
SIGNIFICANT WEATHER AND/OR OBSTRUCTIONS TO VISIBILITY.

* = USE WITH CAUTION. THE STATIONS MARKED WITH AN ASTERISK MAY NOT
REPORT WEATHER SUCH AS PRECIPITATION, FOG, OR THUNDER AND ARE NOT
QUALITY CONTROLLED BY NWS.

THE REMARK "TC" DENOTES TEMPERATURE READING IN DEGREES CELSIUS.

GAZ001>058-020800-
NORTH GEORGIA

CITY           SKY/WX    TMP DP  RH WIND       PRES   REMARKS
ATLANTA        CLOUDY    70  66  87 W6        30.03F
ATHENS         CLOUDY    68  67  96 SW5       30.02F FOG
CHAMBLEE       CLOUDY    69  67  93 SW9       30.03F
PEACHTREE CITY CLOUDY    69  66  90 CALM      30.04F
ROME           CLOUDY    68  67  96 S3        30.00F
WEST ATLANTA   CLOUDY    69  67  93 SW6       30.02F
GAINESVILLE    CLOUDY    68  66  93 NW5       30.06F
CARTERSVILLE   CLOUDY    67  65  93 SE3       30.02F


CITY           SKY/WX    TMP DP  RH WIND       PRES   REMARKS
MARIETTA       CLOUDY    68  67  96 W3        30.03F
$$

GAZ059>098-102>109-020800-
CENTRAL GEORGIA

CITY           SKY/WX    TMP DP  RH WIND       PRES   REMARKS
AUGUSTA-BUSH   MOCLDY    72  66  81 W3        30.00F
AUGUSTA-DANIEL MOCLDY    73  66  78 VRB3      30.02F
COLUMBUS       CLOUDY    69  66  90 CALM      30.01F
MACON          CLOUDY    69  67  93 NW5       30.02F
ROBINS AFB     CLOUDY    72  67  84 NW8       30.01F


CITY           SKY/WX    TMP DP  RH WIND       PRES   REMARKS
$$

GAZ099>101-110>166-020800-
SOUTH GEORGIA

CITY           SKY/WX    TMP DP  RH WIND       PRES   REMARKS
SAVANNAH       MOCLDY    76  66  71 SW3       30.03F
VALDOSTA       CLEAR     74  73  97 CALM      30.05F
ALMA           MOCLDY    75  72  90 S5        30.04F
ST SIMONS      MOCLDY    77  71  82 W5        30.04F
FT STEWART     CLOUDY    76  68  74 S3        30.01F
ALBANY         CLEAR     76  72  87 SW7       30.05F
HUNTER AFB     MOCLDY    75  70  85 SW5       30.00F
MOODY AFB      CLEAR     78  72  83 W8        30.03F


CITY           SKY/WX    TMP DP  RH WIND       PRES   REMARKS
$$



USA.gov is the U.S. government's official web portal to all federal, state and local government web resources and services.